Wetbulb
73.27 76.24 77.09 77.17 76.94 77.22 77.24 77.23 77.04 77.26 77.47 77.68 77.76 77.05 77.31 76.91 76.77 76.80 77.02 76.90 77.06 76.65 76.95 76.64 76.24 76.19 75.95 76.86 76.84 76.64 76.83 76.77 76.55 76.16 75.91 76.14 76.09 76.86 77.40 76.84 76.88 77.04 77.63
74.03 76.44 77.30 77.61 77.20 77.09 76.96 77.15 77.33 77.68 77.07 77.55 77.27 77.04 77.12 77.54 77.26 76.92 76.84 76.97 77.00 76.95 76.97 76.80 76.80 76.82 76.65 76.70 76.64 76.51 76.58 76.41 76.10 75.88 75.73 76.84 76.69 76.61 76.50 76.44 76.85 77.19 77.47
74.52 76.42 76.07 77.77 77.40 76.89 77.00 77.31 77.24 77.21 77.30 77.63 77.86 77.62 77.41 77.44 77.29 77.03 77.17 76.93 77.07 77.01 76.85 76.57 76.71 76.52 75.88 76.27 76.77 76.15 76.22 75.84 75.98 75.94 75.56 76.02 76.35 76.43 76.57 76.68 77.36 76.91 77.00
75.51 76.60 76.14 77.82 77.70 77.05 76.79 77.40 77.31 77.25 77.36 77.39 77.33 77.16 77.44 77.51 77.47 77.34 77.13 76.96 76.98 76.60 76.68 76.82 76.51 76.43 76.04 75.24 75.04 76.35 76.16 75.64 75.60 75.47 75.56 75.58 75.84 76.52 76.58 77.09 76.95 76.79 76.55
75.30 76.02 76.63 77.54 77.28 77.21 76.96 77.49 77.54 77.24 77.44 77.19 76.95 77.52 77.63 77.53 77.12 76.87 77.28 76.71 76.99 76.87 76.85 76.52 76.43 76.18 76.02 75.73 75.57 75.39 75.13 75.10 74.82 74.32 75.74 76.31 75.73 76.25 76.48 76.57 75.80 76.30 76.38
75.11 75.91 77.11 77.53 77.35 77.11 77.23 77.08 76.90 77.35 77.04 77.15 77.09 77.31 77.40 77.14 76.35 76.85 76.96 77.17 76.95 76.70 76.26 76.21 76.02 75.91 75.80 75.99 75.84 75.56 74.88 74.55 74.38 74.68 74.49 75.57 75.53 76.20 76.31 76.50 76.62 76.21 75.80
75.11 76.22 76.54 77.22 77.21 76.69 77.24 76.96 77.01 77.10 76.87 76.94 77.18 77.46 77.17 76.43 76.82 77.13 77.17 76.77 76.53 76.37 76.26 76.21 76.10 75.85 75.74 75.52 75.46 75.49 75.40 75.47 76.82 76.62 74.89 74.49 75.44 77.14 76.06 76.14 76.02 76.26 76.12
74.56 75.62 76.10 77.36 76.78 76.95 76.99 77.04 76.92 76.55 77.03 76.59 76.80 76.94 76.81 76.90 77.21 77.04 76.67 76.61 76.47 76.06 76.06 76.17 75.99 75.93 75.77 75.63 76.02 75.44 74.58 73.30 75.52 76.52 76.14 75.32 75.21 76.66 76.20 75.89 75.73 75.76 75.50
75.10 75.42 76.09 76.32 77.63 77.00 76.84 76.73 76.87 76.74 76.63 76.92 76.60 76.65 77.09 77.03 76.82 76.82 76.54 76.40 76.19 75.76 75.46 75.54 75.60 75.63 75.82 75.68 75.71 75.98 74.03 73.80 74.38 75.90 75.42 75.67 75.50 76.27 76.41 76.26 76.06 75.79 75.59
74.56 74.75 75.51 76.14 76.03 76.82 76.56 77.02 77.12 76.98 76.78 76.00 75.91 76.02 76.35 76.54 76.66 76.57 76.25 76.19 75.68 75.49 75.66 76.02 75.96 76.29 76.18 75.88 76.07 76.53 75.92 74.07 74.14 74.78 75.84 76.03 75.51 75.95 75.92 76.08 76.01 76.16 75.95
73.83 74.36 75.03 75.28 76.52 76.72 76.81 76.71 76.93 76.83 76.45 75.63 75.41 75.54 75.74 75.62 76.25 76.24 75.78 75.48 75.99 75.82 76.10 76.22 76.87 76.02 76.40 77.28 75.68 76.09 77.19 77.04 75.59 74.43 76.25 74.73 75.18 76.12 76.20 76.84 77.27 76.74 76.33
71.39 73.21 74.23 74.75 75.17 75.83 75.90 76.71 76.76 77.10 76.12 74.83 75.39 75.87 75.34 75.19 75.71 75.16 74.72 75.21 75.35 75.80 76.51 76.75 75.56 75.36 75.63 76.45 76.60 74.91 77.54 77.10 75.77 75.21 75.53 74.04 75.86 76.33 76.64 77.86 77.61 76.72 76.75
71.88 72.87 73.68 74.34 75.16 74.67 74.96 75.77 76.10 76.10 74.87 75.11 76.16 76.41 75.66 74.56 74.85 74.59 74.11 74.84 77.18 72.51 73.90 74.70 73.44 74.89 74.54 76.47 76.52 77.14 77.52 76.68 76.93 76.71 76.97 73.86 75.67 76.13 76.79 78.10 77.74 76.60 76.07
71.18 71.88 72.75 73.95 74.97 74.75 74.97 75.29 75.53 75.22 74.23 74.03 74.21 75.90 74.98 73.91 74.02 74.42 74.82 75.46 74.47 72.91 73.04 73.11 75.26 74.78 76.38 77.32 77.21 77.30 76.73 77.27 77.50 77.11 77.13 75.22 75.52 76.39 76.70 77.53 77.84 76.79 76.21
70.25 71.51 72.06 73.45 74.39 74.79 74.75 74.97 75.10 73.89 73.76 73.79 74.32 75.13 74.85 74.30 74.63 74.96 75.03 74.62 74.75 74.60 72.98 73.14 73.12 73.99 75.31 76.69 76.64 76.52 76.19 76.82 77.21 77.38 77.28 75.57 76.15 76.75 77.29 77.21 77.69 77.01 76.78
70.50 71.35 71.88 72.03 73.08 73.77 73.84 74.13 73.78 73.83 74.54 74.76 74.81 74.84 76.05 75.79 75.52 74.99 74.46 73.11 73.33 73.54 74.14 73.99 74.13 74.25 74.98 75.59 75.86 76.52 76.17 76.32 76.46 76.88 77.25 76.97 76.00 77.33 77.96 77.96 78.46 78.34 77.34
70.85 71.29 72.35 72.75 72.69 71.51 72.15 72.98 73.36 73.57 74.17 74.20 74.52 75.22 76.00 76.70 76.54 75.77 74.37 73.26 73.57 73.47 74.44 74.99 75.22 75.45 75.20 75.21 75.93 76.57 76.00 75.79 75.06 75.16 75.72 76.42 76.99 76.63 77.41 78.21 78.25 78.59 78.66
71.36 71.22 72.83 72.13 71.90 71.66 70.87 71.86 72.25 72.41 73.10 74.06 75.13 75.64 74.49 75.16 75.92 75.06 73.74 72.85 73.32 73.94 75.11 75.18 75.48 75.00 75.17 76.51 75.89 75.68 74.93 75.26 75.22 75.31 75.70 76.56 76.83 76.60 76.58 77.20 77.89 78.24 78.93
71.39 72.36 73.12 73.33 71.72 71.42 71.78 71.83 72.46 73.31 73.51 74.17 75.31 76.23 76.68 74.91 74.94 74.85 74.31 74.29 74.10 73.68 75.06 75.67 75.99 75.58 75.47 74.85 73.85 74.71 74.66 73.85 73.52 74.28 73.66 73.27 75.30 76.47 76.40 76.66 77.03 77.69 78.44
71.73 72.44 73.72 73.51 73.02 72.76 71.92 72.20 72.04 72.20 72.92 73.76 74.13 75.11 77.29 76.80 75.01 73.92 74.39 75.60 75.36 73.99 74.89 75.99 76.12 76.02 74.50 72.48 71.79 72.13 74.17 70.93 70.08 69.29 68.35 69.08 70.46 73.48 76.20 76.79 77.35 77.77 77.94
71.78 71.57 73.01 73.31 73.90 72.16 70.77 70.67 71.31 71.63 73.91 74.20 74.43 75.40 76.59 77.18 75.19 75.10 75.51 75.93 75.89 74.50 74.54 74.54 73.54 73.03 72.93 74.79 72.25 72.31 73.18 68.90 68.21 68.59 69.20 72.03 72.21 73.80 75.60 76.80 77.20 77.75 77.86
70.67 71.62 72.61 73.56 74.05 72.67 71.42 72.11 73.56 74.15 74.23 74.83 75.35 75.56 75.76 76.27 76.91 76.01 76.35 76.27 75.77 74.79 72.26 70.15 71.41 71.26 71.39 74.19 71.32 71.02 69.03 68.15 67.84 69.50 70.67 71.31 72.35 72.26 70.37 70.56 71.74 72.99 74.55
69.82 71.12 72.12 74.03 74.58 73.68 73.81 72.85 73.50 74.10 74.49 74.03 75.13 75.61 75.99 75.51 75.43 75.99 76.06 75.35 72.53 70.86 69.78 69.57 70.33 71.20 70.16 71.78 72.72 70.64 68.76 68.15 65.90 66.90 67.14 68.25 69.24 69.15 67.76 67.52 68.10 68.07 69.29
69.43 71.00 71.80 73.28 74.54 74.16 74.37 73.34 74.47 72.54 72.06 73.49 74.65 75.78 75.15 75.33 75.51 74.82 74.55 73.60 73.02 72.46 70.66 70.65 73.77 73.83 72.76 71.19 68.46 69.90 70.59 71.45 65.34 61.43 62.33 63.14 66.23 65.25 65.37 65.15 66.08 66.45 66.64
69.73 69.59 70.27 71.18 73.91 74.50 74.57 73.93 72.73 73.15 73.41 75.02 75.62 72.77 70.89 71.04 71.77 70.03 70.49 71.55 71.26 71.74 71.06 70.79 70.30 70.70 69.23 69.96 68.74 67.33 66.45 68.43 69.76 65.47 60.51 59.40 60.39 61.03 62.25 64.04 64.29 65.67 67.65
69.99 69.73 70.50 70.10 72.09 73.29 73.20 73.62 73.66 73.05 73.07 74.08 71.76 69.16 69.23 69.84 68.37 68.06 67.65 68.78 70.48 71.38 70.48 68.76 66.53 66.94 64.59 64.27 64.87 65.14 61.03 62.30 64.24 61.88 61.21 60.91 59.13 60.46 61.71 61.13 62.62 62.37 64.93
MSLP
1016.02 1016.07 1016.25 1016.31 1016.34 1016.42 1016.57 1016.63 1016.66 1016.62 1016.82 1016.96 1017.07 1017.30 1017.42 1017.54 1017.64 1017.85 1018.06 1018.31 1018.41 1018.36 1018.49 1018.44 1018.49 1018.46 1018.55 1018.54 1018.63 1018.63 1018.65 1018.76 1018.87 1019.12 1019.04 1019.03 1019.20 1019.29 1019.33 1019.47 1019.58 1019.39 1020.00
1015.65 1016.02 1016.18 1016.31 1016.41 1016.51 1016.72 1016.79 1016.83 1016.92 1017.06 1017.17 1017.27 1017.41 1017.64 1017.69 1017.92 1018.16 1018.31 1018.35 1018.48 1018.49 1018.49 1018.66 1018.69 1018.68 1018.70 1018.70 1018.74 1018.75 1018.82 1018.87 1018.98 1019.12 1019.31 1019.12 1019.32 1019.52 1019.60 1019.61 1019.46 1019.76 1020.16
1015.73 1015.89 1016.16 1016.43 1016.57 1016.71 1016.88 1016.92 1017.09 1017.21 1017.29 1017.37 1017.46 1017.59 1017.74 1017.98 1018.13 1018.30 1018.44 1018.53 1018.58 1018.71 1018.77 1018.78 1018.78 1018.76 1018.92 1019.02 1019.03 1019.00 1018.96 1019.05 1019.02 1019.13 1019.35 1018.93 1019.04 1019.60 1019.71 1019.81 1019.92 1020.30 1020.47
1015.62 1015.87 1016.11 1016.53 1016.67 1016.89 1017.00 1017.11 1017.28 1017.33 1017.38 1017.46 1017.64 1017.78 1017.88 1018.05 1018.25 1018.42 1018.57 1018.65 1018.82 1018.91 1018.92 1018.95 1018.97 1018.97 1019.02 1019.15 1019.29 1019.21 1019.28 1019.26 1019.26 1019.21 1019.08 1019.22 1019.17 1019.72 1019.89 1020.02 1020.22 1020.36 1020.74
1015.69 1015.97 1016.25 1016.59 1016.73 1016.88 1017.07 1017.21 1017.38 1017.51 1017.57 1017.72 1017.93 1017.95 1018.04 1018.24 1018.37 1018.52 1018.63 1018.81 1018.89 1019.00 1019.05 1019.07 1019.13 1019.15 1019.13 1019.23 1019.39 1019.46 1019.48 1019.49 1019.47 1019.21 1019.24 1019.30 1019.17 1019.90 1020.00 1020.10 1020.48 1020.57 1020.66
1015.85 1016.06 1016.40 1016.62 1016.75 1016.94 1017.23 1017.37 1017.53 1017.69 1017.92 1017.97 1018.05 1018.19 1018.29 1018.44 1018.53 1018.65 1018.79 1018.94 1019.03 1019.13 1019.17 1019.20 1019.20 1019.19 1019.21 1019.26 1019.31 1019.43 1019.58 1019.60 1019.56 1019.21 1019.27 1019.54 1019.42 1019.97 1020.15 1020.24 1020.28 1020.69 1020.98
1016.10 1016.20 1016.43 1016.85 1016.98 1017.23 1017.34 1017.62 1017.74 1018.00 1018.08 1018.17 1018.28 1018.38 1018.55 1018.58 1018.67 1018.82 1018.91 1019.09 1019.26 1019.36 1019.32 1019.25 1019.22 1019.22 1019.23 1019.29 1019.33 1019.34 1019.36 1019.50 1019.24 1019.37 1019.44 1019.40 1019.45 1020.07 1020.28 1020.47 1020.56 1020.71 1021.03
1016.05 1016.29 1016.53 1017.02 1017.25 1017.45 1017.64 1017.80 1017.96 1018.22 1018.27 1018.41 1018.49 1018.62 1018.74 1018.79 1018.86 1018.94 1019.08 1019.25 1019.37 1019.39 1019.32 1019.26 1019.21 1019.23 1019.28 1019.33 1019.44 1019.51 1019.49 1019.49 1019.29 1019.28 1019.42 1019.52 1019.83 1020.20 1020.20 1020.48 1020.75 1020.82 1021.10
1016.15 1016.31 1016.55 1016.76 1017.16 1017.55 1017.75 1018.00 1018.26 1018.51 1018.63 1018.62 1018.66 1018.81 1018.87 1018.93 1018.96 1019.06 1019.23 1019.33 1019.37 1019.38 1019.39 1019.26 1019.24 1019.23 1019.23 1019.29 1019.39 1019.50 1019.57 1019.53 1019.09 1019.09 1019.25 1019.46 1020.09 1020.23 1020.34 1020.44 1020.63 1020.88 1021.04
1016.38 1016.46 1016.71 1017.02 1017.11 1017.28 1017.62 1017.96 1018.21 1018.51 1018.70 1018.80 1018.88 1018.98 1019.06 1019.08 1019.12 1019.22 1019.40 1019.41 1019.44 1019.47 1019.38 1019.28 1019.24 1019.18 1019.18 1019.14 1019.18 1019.29 1019.32 1019.35 1019.05 1019.06 1019.13 1019.15 1020.01 1020.27 1020.28 1020.45 1020.64 1020.81 1021.04
1016.63 1016.63 1016.73 1017.06 1017.32 1017.51 1017.56 1017.88 1018.33 1018.48 1018.64 1018.77 1018.89 1019.00 1019.14 1018.90 1019.02 1019.14 1019.17 1019.38 1019.45 1019.57 1019.55 1019.40 1019.27 1019.27 1019.20 1019.07 1019.08 1019.18 1019.25 1018.82 1019.05 1019.00 1018.82 1019.40 1019.85 1020.12 1020.28 1020.45 1020.62 1020.78 1020.92
1016.43 1016.70 1016.84 1016.92 1017.14 1017.34 1017.41 1017.69 1017.94 1018.15 1018.22 1018.49 1018.76 1018.93 1019.05 1019.11 1019.07 1019.05 1019.19 1019.32 1019.42 1019.51 1019.54 1019.51 1019.45 1019.31 1019.19 1018.67 1018.56 1018.92 1018.57 1018.77 1018.79 1018.72 1018.80 1019.36 1019.60 1019.77 1020.03 1020.30 1020.50 1020.72 1020.88
1016.23 1016.59 1016.80 1017.03 1017.33 1017.28 1017.38 1017.69 1017.85 1018.08 1018.28 1018.58 1018.91 1019.11 1019.25 1019.28 1019.28 1019.19 1019.22 1019.08 1019.37 1019.61 1019.24 1019.36 1019.20 1019.11 1018.95 1018.73 1018.61 1018.40 1018.43 1018.51 1018.34 1018.43 1018.62 1019.30 1019.44 1019.54 1019.63 1019.92 1020.26 1020.59 1020.79
1016.04 1016.36 1016.68 1016.92 1017.15 1017.28 1017.50 1017.73 1017.90 1018.13 1018.36 1018.49 1018.72 1019.15 1019.32 1019.26 1019.29 1019.44 1019.24 1019.35 1019.56 1019.43 1019.36 1019.42 1019.21 1019.06 1018.71 1018.61 1018.37 1018.24 1018.16 1018.06 1018.05 1018.25 1018.40 1019.05 1019.27 1019.39 1019.41 1019.60 1019.93 1020.21 1020.44
1015.68 1016.09 1016.49 1016.89 1017.37 1017.44 1017.69 1017.67 1017.94 1018.08 1018.27 1018.38 1018.61 1018.91 1019.06 1019.00 1019.11 1019.33 1019.19 1019.29 1019.43 1019.41 1019.39 1019.39 1019.20 1018.95 1018.71 1018.26 1018.11 1018.07 1017.91 1017.83 1017.99 1018.13 1018.26 1018.82 1018.84 1018.93 1019.19 1019.40 1019.67 1019.86 1020.05
1015.48 1015.79 1016.20 1016.76 1017.26 1017.72 1017.80 1017.94 1017.83 1017.93 1018.14 1018.44 1018.51 1018.63 1018.91 1018.91 1019.01 1019.10 1019.23 1019.27 1019.37 1019.40 1019.18 1019.08 1019.01 1018.80 1018.46 1018.21 1017.86 1017.87 1017.96 1017.91 1017.96 1018.03 1017.97 1018.06 1018.56 1018.72 1018.82 1019.04 1019.30 1019.52 1019.72
1014.79 1015.54 1015.94 1016.22 1016.59 1017.25 1017.71 1017.94 1017.98 1017.95 1017.87 1018.09 1018.25 1018.67 1018.99 1019.23 1019.18 1019.24 1019.14 1019.10 1019.05 1019.34 1019.49 1019.36 1019.13 1018.80 1018.51 1018.18 1018.03 1017.73 1017.70 1017.87 1017.85 1018.07 1017.96 1017.78 1017.75 1018.30 1018.59 1018.84 1019.01 1019.10 1019.17
1014.62 1015.27 1015.83 1016.08 1016.23 1016.65 1017.03 1017.54 1017.80 1017.97 1018.08 1018.19 1018.30 1018.42 1018.70 1018.87 1019.08 1019.28 1019.18 1019.13 1019.13 1019.22 1019.22 1019.22 1019.13 1018.87 1018.59 1018.31 1018.10 1017.96 1017.88 1017.68 1017.64 1017.59 1017.67 1017.68 1017.59 1017.34 1018.12 1018.34 1018.57 1018.72 1018.95
1014.40 1014.99 1015.37 1015.86 1016.11 1016.49 1016.79 1016.96 1017.37 1017.60 1017.74 1017.72 1017.91 1017.92 1018.20 1018.46 1018.68 1018.94 1018.72 1018.79 1019.27 1019.17 1019.11 1019.24 1019.25 1019.13 1018.87 1018.62 1018.12 1018.08 1018.13 1018.03 1018.00 1017.77 1017.80 1017.72 1017.74 1017.60 1017.31 1017.66 1018.03 1018.31 1018.59
1013.81 1014.45 1015.15 1015.58 1015.76 1016.10 1016.50 1016.81 1016.80 1016.99 1017.14 1017.46 1017.63 1017.68 1017.80 1018.07 1018.37 1018.55 1018.43 1018.60 1018.84 1018.92 1019.10 1019.09 1019.22 1019.03 1018.89 1018.92 1018.62 1018.43 1018.44 1018.40 1018.41 1018.29 1018.20 1017.92 1017.84 1017.59 1017.32 1017.41 1017.40 1017.78 1018.51
1013.39 1013.92 1014.35 1015.05 1015.65 1016.14 1016.21 1016.36 1016.59 1016.58 1016.79 1016.93 1017.04 1017.20 1017.54 1017.79 1018.07 1018.32 1018.11 1018.23 1018.52 1018.91 1019.10 1019.18 1019.10 1019.14 1018.81 1018.87 1018.63 1018.46 1018.55 1018.64 1018.72 1018.65 1018.42 1018.42 1018.41 1018.28 1017.88 1017.70 1017.65 1017.68 1017.94
1012.63 1013.38 1013.93 1014.26 1014.90 1015.76 1016.20 1016.23 1016.24 1016.41 1016.46 1016.37 1016.61 1016.93 1017.23 1017.44 1017.72 1017.92 1018.02 1018.14 1018.55 1019.07 1019.67 1019.84 1019.86 1019.80 1019.53 1019.03 1018.57 1018.41 1018.15 1018.58 1018.80 1019.13 1019.05 1018.57 1018.55 1018.94 1019.14 1018.93 1018.82 1018.78 1019.01
1011.93 1012.45 1013.05 1013.63 1014.20 1014.97 1015.52 1016.05 1016.31 1016.35 1016.46 1016.66 1016.89 1017.06 1017.22 1017.46 1017.62 1017.73 1017.96 1018.44 1019.19 1019.32 1019.59 1019.60 1020.26 1020.08 1019.40 1019.31 1019.19 1019.09 1018.78 1018.49 1018.77 1019.71 1019.70 1019.52 1019.24 1019.15 1019.30 1019.68 1019.61 1019.53 1019.83
1010.78 1011.91 1012.48 1013.17 1013.74 1014.27 1015.06 1015.53 1015.68 1015.81 1015.98 1016.21 1016.59 1017.33 1017.80 1017.95 1018.04 1018.15 1018.36 1018.48 1018.54 1019.27 1019.44 1019.96 1019.73 1019.60 1019.44 1019.24 1019.78 1019.42 1019.40 1019.03 1018.59 1019.57 1020.46 1020.44 1019.97 1020.06 1019.91 1019.62 1019.98 1020.31 1020.62
1010.51 1010.97 1011.74 1012.76 1013.41 1013.92 1014.48 1015.05 1015.55 1015.85 1016.10 1016.67 1017.16 1017.90 1018.40 1018.53 1018.51 1018.79 1018.68 1018.73 1018.83 1019.18 1019.34 1019.29 1019.93 1019.50 1019.64 1019.52 1019.60 1019.74 1019.58 1019.55 1019.44 1018.95 1020.02 1020.84 1020.63 1020.70 1020.68 1020.59 1020.57 1020.40 1020.53
1010.67 1011.11 1011.71 1012.40 1013.14 1013.81 1014.40 1014.87 1015.49 1016.09 1016.56 1016.91 1017.68 1018.29 1018.72 1018.92 1019.18 1019.17 1019.64 1019.55 1019.38 1019.36 1019.48 1019.68 1019.75 1019.56 1019.16 1019.55 1019.49 1019.67 1019.54 1019.50 1019.32 1019.43 1020.13 1020.74 1020.83 1021.14 1020.97 1020.58 1020.97 1021.26 1021.09
Wind_Speed
8 8 10 13 11 12 11 12 13 13 14 14 14 14 14 14 13 12 11 12 11 11 12 13 12 12 12 12 11 10 10 11 10 9 8 11 11 11 13 14 12 14 14
12 10 9 12 12 13 11 11 12 12 13 13 13 13 13 12 13 12 12 12 13 12 13 13 12 12 12 11 12 10 10 11 11 10 7 12 12 13 13 13 8 15 14
13 11 11 11 12 12 13 13 12 12 12 11 13 13 13 13 13 13 12 12 12 12 12 12 12 13 12 11 11 10 11 10 10 11 7 6 11 12 13 13 15 14 14
13 11 11 11 13 12 12 13 12 12 12 12 13 13 13 14 14 13 13 12 12 12 11 11 11 10 12 10 9 10 10 9 9 10 6 5 8 12 12 13 13 15 13
12 11 11 14 13 13 12 12 12 12 13 12 11 11 13 12 13 12 11 12 11 11 10 10 9 9 9 9 8 7 6 9 7 5 7 6 5 10 12 14 13 13 10
11 11 11 12 12 12 11 11 11 12 10 10 10 11 12 13 12 11 10 10 10 10 9 8 7 8 8 7 7 6 4 3 4 4 5 7 5 9 9 10 12 14 13
11 10 11 10 11 10 11 10 9 12 11 10 10 12 13 12 11 9 10 9 9 8 8 7 6 6 5 4 3 3 2 2 4 3 4 5 6 8 9 8 9 11 11
12 9 10 11 10 9 10 11 9 9 9 10 10 11 11 10 9 9 8 8 7 7 6 5 4 4 3 2 2 2 2 2 4 4 5 5 7 7 10 9 7 8 9
11 10 9 10 11 10 9 10 9 9 10 9 9 9 9 9 8 7 7 6 5 4 4 3 2 1 1 0 1 2 2 2 4 3 5 5 8 10 10 9 9 7 8
10 9 8 7 8 9 10 11 10 10 10 9 8 8 9 8 8 7 5 6 4 3 4 4 4 4 3 3 3 4 4 4 2 5 4 5 10 12 11 10 10 10 9
9 10 9 9 8 8 8 9 9 10 10 10 9 9 9 6 8 7 4 4 5 4 5 6 6 5 5 4 4 4 5 2 1 4 3 7 12 13 12 11 10 10 12
12 10 9 10 9 9 8 9 8 9 7 7 7 7 6 6 5 5 4 6 5 5 6 5 6 7 7 3 2 4 4 3 4 3 3 8 13 14 13 11 11 11 12
12 10 11 10 10 10 7 6 5 5 5 5 7 6 5 4 4 4 3 4 1 2 4 3 4 3 4 2 2 1 2 4 3 3 3 9 13 15 15 13 12 12 12
13 13 12 11 11 11 7 7 6 5 5 5 6 6 4 4 5 4 4 4 4 2 3 4 2 3 4 2 1 1 4 3 2 2 4 9 11 14 15 14 13 14 13
13 13 13 12 10 9 9 7 6 6 6 6 5 6 5 6 5 4 4 4 4 3 4 3 4 4 4 4 4 4 3 3 2 2 2 8 12 14 15 15 15 15 15
12 13 13 13 11 8 8 8 7 7 6 6 5 6 8 6 5 4 4 4 3 4 4 3 4 4 4 5 4 5 5 4 4 3 3 5 11 12 15 16 16 16 16
13 13 13 15 13 12 10 7 6 6 7 6 6 6 6 6 7 6 4 5 5 4 4 3 5 5 4 3 3 3 4 5 5 5 4 4 6 13 13 14 15 16 16
11 13 12 11 14 14 12 8 6 5 5 5 5 5 7 7 7 5 5 5 4 3 3 3 4 3 3 2 2 3 4 5 6 5 4 4 4 5 11 13 15 16 15
13 12 14 13 14 13 11 9 9 8 7 7 6 6 8 8 9 7 5 5 4 4 3 2 2 2 2 3 4 3 4 5 7 6 5 5 4 4 5 10 15 16 15
15 14 13 12 14 13 9 8 7 7 8 7 7 7 8 7 8 7 7 6 4 4 3 2 2 2 1 2 5 4 3 4 4 4 5 5 5 5 4 4 5 9 12
16 16 16 15 13 9 9 9 8 8 7 7 8 10 9 8 7 7 7 6 4 5 4 1 1 7 6 3 4 2 3 4 6 7 6 5 6 8 9 7 3 3 4
18 17 16 16 15 11 9 7 6 5 5 5 5 6 7 6 7 8 8 6 3 3 5 5 4 2 3 3 4 3 3 4 5 9 7 6 9 9 11 12 10 9 8
19 20 18 17 16 14 13 8 5 3 3 4 2 3 2 5 7 8 6 2 4 3 3 3 6 11 3 1 1 2 2 2 4 6 9 8 9 9 10 13 13 11 10
21 17 16 16 16 15 13 10 11 8 8 5 4 4 4 6 4 1 4 5 6 2 4 6 6 6 5 4 0 2 1 1 4 4 6 8 9 11 11 10 11 10 5
16 16 15 12 15 13 14 13 10 10 6 2 3 6 7 7 9 8 7 3 3 2 2 4 6 4 2 2 2 1 1 1 1 2 4 4 8 6 7 9 9 8 9
11 13 14 12 11 13 10 13 11 8 5 3 5 5 5 5 5 7 4 4 1 4 6 5 3 4 5 2 3 2 3 3 3 3 4 5 7 5 7 9 8 6 6
Wind_Direction
167 159 155 141 139 122 127 128 122 119 119 121 123 128 127 126 132 130 130 117 112 105 104 113 114 114 112 106 102 104 101 98 95 96 108 112 123 125 122 120 136 118 117
149 160 153 141 140 133 134 128 123 121 127 128 127 128 134 132 125 119 122 125 114 114 112 112 113 109 107 110 109 105 99 96 95 88 80 104 113 121 115 124 128 112 119
147 150 155 147 140 141 133 128 130 131 128 133 135 128 130 129 128 125 121 119 118 111 111 114 112 104 105 100 102 110 105 97 97 94 85 87 107 113 118 124 116 124 122
145 145 150 150 144 140 141 135 132 133 131 130 124 134 134 130 126 123 128 120 114 114 115 111 113 109 106 105 114 114 108 103 99 106 106 80 106 117 123 116 119 122 119
146 148 149 145 151 151 142 134 135 136 133 129 129 135 132 125 123 125 119 124 127 119 116 115 113 109 104 100 96 111 112 105 106 110 106 121 97 125 133 131 130 123 137
146 149 144 156 149 131 135 121 133 127 128 135 132 136 124 120 128 131 128 120 120 116 112 111 114 112 108 109 130 140 144 146 163 118 120 122 140 122 142 140 133 135 138
148 153 147 141 123 133 134 130 144 132 133 137 138 133 126 131 133 137 124 120 118 117 113 115 112 104 98 90 70 69 49 295 272 207 174 174 150 163 157 159 148 142 149
151 151 150 137 152 152 146 138 143 130 138 141 126 123 131 137 135 130 136 138 137 137 134 129 135 128 112 82 67 49 48 38 231 239 211 188 139 190 171 173 174 157 151
152 160 159 161 150 152 142 145 142 143 136 140 136 140 139 145 146 149 158 157 160 163 159 175 192 186 169 172 269 217 188 343 290 203 221 204 166 192 190 188 183 190 178
162 164 162 158 157 161 155 167 159 153 146 144 157 162 160 163 168 177 186 192 195 208 233 236 241 253 255 251 252 238 213 222 325 191 203 192 175 199 197 198 196 192 196
174 174 172 166 165 162 166 162 165 159 160 164 174 179 176 179 179 185 194 234 227 239 251 272 286 300 313 273 282 279 249 251 199 205 200 144 190 201 202 203 201 203 203
181 186 185 176 173 175 170 171 175 173 177 177 180 190 195 187 194 217 230 244 258 301 290 273 284 288 275 284 261 231 241 232 215 187 204 177 195 198 205 211 200 205 207
188 187 190 185 185 188 186 182 182 180 179 182 192 196 200 194 203 215 229 242 264 301 279 254 271 250 261 264 251 228 220 218 224 215 161 194 197 205 206 205 205 213 215
190 193 189 195 191 190 186 190 191 196 189 194 193 200 202 212 211 214 225 208 213 237 306 295 312 310 289 282 339 141 239 232 207 223 192 203 205 212 215 208 203 211 216
191 190 195 197 205 199 195 194 203 201 198 195 200 199 211 223 225 215 230 247 250 243 285 254 283 301 315 326 357 358 327 291 268 247 247 214 211 212 216 213 209 212 215
196 192 186 198 201 209 216 209 196 194 194 207 219 219 219 230 230 222 229 234 247 266 282 272 267 278 294 307 357 8 358 347 325 295 254 221 224 224 214 211 210 212 215
190 191 193 192 193 196 214 216 215 214 203 210 220 226 235 250 248 256 247 250 260 253 264 280 281 271 278 283 333 342 349 355 4 354 313 272 220 215 222 218 217 213 215
196 190 194 201 193 190 193 203 217 222 226 242 238 235 223 227 220 235 261 268 268 237 235 271 280 279 318 340 334 354 345 333 348 354 354 345 268 240 201 220 223 224 220
204 196 192 197 199 198 194 196 205 212 223 219 231 235 229 225 224 240 251 261 255 253 265 283 254 297 312 345 324 358 4 5 348 340 6 16 12 272 242 187 220 223 219
198 200 199 202 201 198 197 201 210 210 217 228 232 241 239 242 233 231 248 251 242 247 267 302 352 13 36 351 331 335 350 25 15 10 6 9 21 13 338 258 216 212 219
206 200 197 197 211 204 197 198 213 221 220 221 225 225 229 234 237 235 244 254 246 257 255 121 62 349 310 295 286 179 171 96 52 35 23 26 25 28 27 38 24 337 162
205 203 203 202 199 206 210 209 216 210 221 220 213 222 237 242 234 242 255 258 275 337 17 344 353 306 275 292 290 282 196 166 68 40 30 43 43 48 46 47 50 57 57
207 202 201 204 197 201 205 209 210 200 198 204 219 221 237 265 260 256 245 171 107 88 35 329 251 242 270 192 277 307 268 224 140 36 43 46 59 77 75 61 54 59 62
211 208 202 200 200 201 196 208 208 220 221 220 198 110 67 29 14 205 156 147 96 126 214 250 259 259 237 209 127 98 1 238 193 149 53 45 72 69 64 70 72 69 50
204 196 193 197 203 200 194 208 213 223 241 173 119 108 85 64 49 35 29 41 110 182 231 232 237 210 225 164 160 170 119 31 318 144 130 103 77 62 52 47 49 67 78
214 191 189 170 190 195 196 202 207 221 231 128 113 102 92 75 57 47 28 20 8 195 193 195 170 150 112 128 149 165 164 190 193 139 119 142 109 62 72 71 61 45 40